Location: Darlington Observatory
(36.4817°N, 105.8156°W)
Time: 10:39:44
(UTC-06:00)

Daily predictions for brighter satellites

Satellite Brightness Start Highest point End
(mag) Time Altitude Azimuth Time Altitude Azimuth Time Altitude Azimuth
Cosmos 2322 Rocket 2.3 20:47:17 10° NNW 20:52:54 71° ENE 20:58:29 10° SSE
YAOGAN 11 4.1 20:54:33 10° SSE 20:58:49 70° ENE 21:03:10 10° N
In-Cosmos 22 4.3 20:55:22 10° S 21:01:07 75° E 21:06:53 10° NNE
Cosmos 1980 Rocket 3.7 20:56:30 10° NW 21:01:37 36° WSW 21:06:44 10° SSW
Envisat 3.9 20:57:22 10° SE 21:01:53 34° ENE 21:06:26 10° N
Cosmos 2360 Rocket 3.3 20:57:20 10° N 21:02:16 30° ENE 21:07:10 10° ESE
SL-16 R/B 2.2 20:58:01 10° NNW 21:03:44 81° ENE 21:09:24 10° SSE
FENGYUN 3A 4.1 20:59:54 10° S 21:05:15 66° WSW 21:10:40 10° NNW
ERS-1 Rocket 3.1 21:00:41 10° SSE 21:05:38 63° ENE 21:10:38 10° N
Cosmos 1908 4.3 21:03:30 10° NNE 21:06:57 30° ENE 21:10:23 10° SE
H-2A R/B 2.5 21:05:46 10° SSE 21:10:07 49° ENE 21:14:29 10° N
GPS 2-04 Rocket1 4.1 21:09:02 10° W 21:12:52 29° SSW 21:16:24 11° SE
Cosmos 1328 Rocket 3.6 21:10:11 10° N 21:14:40 87° E 21:19:05 10° S
Cosmos 1674 3.0 21:13:03 10° SSE 21:16:42 45° E 21:20:23 10° NNE
Cosmos 1777 Rocket 4.0 21:13:08 10° SSW 21:18:24 89° ESE 21:23:41 10° NNE
DELTA 2 R/B (1) 3.7 21:16:25 10° WNW 21:21:59 75° NNE 21:27:32 10° E
CZ-2C R/B -1.2 21:22:17 38° SSE 21:22:39 82° ENE 21:24:00 10° N
ATLAS CENTAUR R/B 3.1 21:19:17 10° NW 21:23:06 28° WSW 21:26:36 10° S
Cosmos 1939 Rocket 2.8 21:22:27 10° SSE 21:26:20 70° ENE 21:30:13 10° N
NOSS 3-1 (C) 3.8 21:22:42 10° S 21:27:58 38° ESE 21:33:39 10° NE
Cosmos 405 3.2 21:27:43 10° N 21:31:18 52° E 21:33:51 17° SSE
Cosmos 2228 Rocket 4.3 21:28:30 10° NNW 21:32:45 43° W 21:37:02 10° SSW
Cosmos 1833 4.3 21:28:00 10° SSW 21:33:44 85° WNW 21:39:27 10° NNE
Cosmos 1500 Rocket 4.1 21:29:37 10° SSW 21:33:56 62° W 21:38:18 10° N
S3M 4.4 21:30:33 10° NNW 21:36:35 63° W 21:42:36 10° S
YAOGAN 6 3.8 21:35:21 19° ESE 21:37:07 28° ENE 21:40:15 10° NNE
Cosmos 1437 Rocket 2.7 21:33:42 10° N 21:37:31 82° W 21:40:57 13° S
Cosmos 2333 Rocket 4.4 21:37:20 10° NNE 21:39:23 12° NE 21:41:26 10° ENE
OE (NEXTSAT) 4.3 21:36:59 10° WNW 21:40:35 87° SSW 21:42:37 24° SE
Terra 4.0 21:39:53 10° ENE 21:41:08 11° ENE 21:42:23 10° NE
H-2A R/B 4.0 21:39:08 11° E 21:41:54 16° ENE 21:44:59 10° NNE
CZ-4 SHROUD 3.5 21:40:50 24° SE 21:42:26 51° ENE 21:45:29 10° N
Delta 2 Rocket 2.7 21:46:36 10° W 21:50:11 73° S 21:52:07 23° E
Cosmos 1680 Rocket 3.5 21:46:07 10° NNW 21:51:20 68° ENE 21:54:43 22° SSE
COSMOS 2428 3.5 21:46:37 10° N 21:51:51 37° ENE 21:55:02 21° ESE
OAO 2 Rocket 3.8 21:48:35 10° SW 21:53:32 40° SSE 21:57:14 17° E
SPOT 1/Viking Rocket 4.0 21:50:47 22° SE 21:53:45 45° ENE 21:58:39 10° N
CZ-4B R/B 3.7 21:48:36 10° NNE 21:53:46 55° E 21:57:51 16° S
Cosmos 2297 Rocket 4.2 21:55:00 10° E 21:55:00 10° E 21:55:22 10° E
Cosmos 923 Rocket 4.0 21:50:18 10° NNW 21:55:31 83° WSW 21:59:10 20° SSE
MetOp-A 4.1 21:54:15 20° SSE 21:58:00 76° ENE 22:03:22 10° N
Cosmos 1328 3.8 21:57:22 14° S 22:00:41 83° W 22:04:39 10° N
CZ-4 R/B 4.2 21:57:30 10° NNE 22:02:14 45° E 22:04:32 26° SSE
Cosmos 1898 Rocket 3.8 21:59:20 22° SSE 22:02:17 44° ESE 22:07:12 10° NNE
ARGOS 3.6 21:59:48 25° SE 22:02:41 47° ENE 22:07:49 10° N
Cosmos 2219 Rocket 3.7 21:59:27 10° N 22:03:50 23° ENE 22:06:29 17° E
Cosmos 2150 Rocket 4.3 22:03:12 20° S 22:06:47 51° ESE 22:12:04 10° NNE
Cosmos 2151 3.5 22:03:40 10° SSW 22:07:47 56° W 22:11:56 10° N
USA 245 2.7 22:09:33 46° ENE 22:09:33 46° ENE 22:11:41 10° N
Sich 1 3.2 22:11:22 34° SSE 22:12:59 53° E 22:17:17 10° NNE
Cosmos 2237 4.4 22:07:54 10° NNW 22:13:35 60° ENE 22:16:16 31° SE
Tiangong 1 0.9 22:10:38 10° WSW 22:13:44 89° NNW 22:14:50 37° ENE
SL-08 RB Rocket 4.1 22:12:52 33° ESE 22:14:22 47° ENE 22:18:40 10° N
Cosmos 1633 Rocket 3.2 22:13:57 36° SSE 22:15:22 53° E 22:19:38 10° NNE
Cosmos 1726 2.5 22:13:32 10° N 22:17:12 48° E 22:17:46 44° ESE
Cosmos 2219 3.7 22:17:32 10° SSW 22:23:12 62° WNW 22:28:55 10° NNE
SL-14 R/B 3.1 22:23:59 41° S 22:25:17 87° E 22:29:18 10° N
Cosmos 1703 3.6 22:25:25 43° E 22:25:29 43° E 22:29:12 10° NNE
SPOT 5 3.8 22:23:11 18° SSW 22:26:06 41° W 22:30:36 10° NNW
Cosmos 1271 Rocket 3.4 22:23:08 10° N 22:26:44 37° ENE 22:26:53 37° E
Cosmos 2058 3.5 22:25:16 20° SSW 22:27:55 54° W 22:31:57 10° N
Cosmos 1805 Rocket 4.1 22:27:06 19° SSW 22:30:10 57° W 22:34:34 10° N
NOSS 3-1 (A) 3.3 22:25:25 10° SSW 22:31:14 89° ESE 22:37:39 10° NNE
Cosmos 2333 4.3 22:27:07 10° NNW 22:32:49 64° ENE 22:34:53 39° SE
Cosmos 2237 Rocket 3.5 22:29:15 10° N 22:34:03 27° ENE 22:36:00 22° E
Cosmos 2322 4.5 22:29:06 10° NW 22:34:31 45° WSW 22:37:34 24° SSW
Cosmos 2315 Rocket 4.3 22:28:29 10° NNW 22:34:36 62° W 22:38:37 22° SSW
Cosmos 2082 4.2 22:34:34 37° ESE 22:35:17 39° ESE 22:40:33 10° NE
Iridium 2 4.0 22:36:09 50° E 22:36:09 50° E 22:39:46 10° NNE
Meteor 1-27 4.2 22:32:00 10° N 22:37:41 79° W 22:40:12 34° S
USA 32 4.0 22:35:23 10° N 22:40:38 71° E 22:42:08 46° SSE
Meteor 1-4 Rocket 2.5 22:40:33 10° N 22:44:12 72° ENE 22:44:12 72° ENE
NOAA 11 4.3 22:43:47 37° S 22:45:57 73° WSW 22:51:26 10° NNW
Cosmos 1241 Rocket 4.4 22:43:50 37° S 22:46:03 57° ESE 22:52:08 10° NE
Cosmos 2360 Rocket 3.4 22:41:11 10° NW 22:46:13 34° WSW 22:49:07 21° SSW
Meteor 2-10 4.3 22:42:29 10° N 22:48:10 65° E 22:49:41 47° SE
Cosmos 1707 Rocket 4.3 22:47:09 10° NNW 22:51:19 46° W 22:52:39 34° SW
ATLAS 2AS CENTAUR R/B 3.0 22:50:45 36° SSE 22:53:31 53° ESE 23:01:10 10° NE
Cosmos 1626 3.1 22:55:19 38° NE 22:55:19 38° NE 22:57:59 10° NNE
IGS 5A 3.6 22:58:25 60° ENE 22:58:25 60° ENE 23:02:27 10° N
Cosmos 220 Rocket 4.1 22:58:39 53° SW 22:59:35 72° WNW 23:04:01 10° NNE
Nadezhda 1 Rocket 3.9 22:54:27 10° N 23:00:32 70° E 23:02:05 50° SE
Landsat 7 3.8 23:01:33 59° SSW 23:02:21 73° WSW 23:07:07 10° NNW
Cosmos 1937 Rocket 3.7 23:00:08 32° SW 23:02:34 69° WNW 23:07:46 10° NNE
Cosmos 1470 Rocket 3.4 23:05:53 81° WSW 23:06:02 83° W 23:10:21 10° N
Cosmos 1300 4.4 23:03:04 10° NW 23:06:16 25° W 23:07:01 24° WSW
Cosmos 1933 Rocket 3.5 23:07:06 79° SW 23:07:19 84° W 23:11:49 10° N
DELTA 2 R/B (1) 3.9 23:03:01 10° WNW 23:08:20 48° SSW 23:08:22 48° SSW
Cosmos 292 Rocket 3.6 23:04:53 10° NNW 23:09:39 77° WSW 23:09:58 72° SSW
Cosmos 1745 Rocket 4.1 23:06:59 36° SSW 23:09:43 72° W 23:15:54 10° N
Cosmos 2227 Rocket 2.0 23:08:49 53° SSW 23:10:13 84° ESE 23:15:55 10° NNE
ATLAS 3B R/B 3.9 23:08:09 10° NNW 23:14:19 32° NE 23:17:16 23° E
Cosmos 990 Rocket 4.0 23:13:45 52° SW 23:14:58 75° WNW 23:20:08 10° NNE
Cosmos 1709 Rocket 4.0 23:17:23 53° ESE 23:18:05 56° E 23:24:03 10° NNE
Terra 1.8 23:17:55 70° SW 23:18:13 73° WSW 23:22:59 10° NNW
Spot 4 3.7 23:18:40 83° SE 23:18:51 87° ENE 23:23:43 10° NNW
Spot 2 4.4 23:14:15 10° N 23:19:21 81° WNW 23:19:58 68° SW
H-2A R/B 2.3 23:19:46 55° SSW 23:20:41 64° W 23:26:05 10° NNW
Cosmos 2333 Rocket 2.1 23:18:46 10° NNW 23:24:33 82° ENE 23:25:14 70° SE
SL-16 R/B 3.3 23:21:46 10° N 23:26:51 32° ENE 23:27:44 31° ENE
Cosmos 1455 3.1 23:25:22 10° NNW 23:28:13 47° NNW 23:28:13 47° NNW
NOSS 0 Rocket 3.8 23:26:16 10° NNW 23:32:25 76° WSW 23:33:18 64° S
COSMOS 2428 4.1 23:31:11 10° NW 23:35:54 27° WSW 23:37:03 25° WSW
Cosmos 2297 Rocket 2.1 23:36:45 69° SW 23:37:27 84° WNW 23:43:08 10° NNE
OAO 2 Rocket 4.2 23:32:50 10° WSW 23:36:15 40° WSW 23:36:15 40° WSW
Cosmos 1869 4.2 23:34:28 10° NNW 23:37:35 49° NW 23:37:35 49° NW
CZ-4B R/B 4.5 23:44:19 10° NE 23:44:19 10° NE 23:44:25 10° NE
Cosmos 2181 Rocket 4.0 23:39:12 10° N 23:45:35 71° E 23:46:15 66° ESE
Cosmos 2219 Rocket 2.7 23:42:40 10° NW 23:47:59 45° WSW 23:48:13 45° WSW
Cosmos 1125 Rocket 3.5 23:50:16 83° N 23:50:16 83° N 23:55:26 10° NNE
SeaSat 1 3.0 23:52:14 48° NE 23:52:14 48° NE 23:56:52 10° NNW
Cosmos 2184 Rocket 4.5 23:53:19 44° E 23:53:19 44° E 23:59:00 10° NNE
Cosmos 1048 Rocket 4.4 23:48:56 10° N 23:54:01 55° ENE 23:54:01 55° ENE
